User: anonymous
Location: Mount Wilson Observatory
(34.2257°N, 118.0571°W)
Time: 08:33:17
(UTC-07:00)
Language:

ATLAS 3B CENTAUR R/B - Orbit

View from above orbital plane
View from above orbital plane
View from above satellite
View from above satellite

Ground track
Ground track

The orbit data is extracted from the following two-line orbital elements,

1 28118U 03057B   14212.56431481  .00043401  00000-0  97852-3 0  6743
2 28118 028.1764 034.3021 3865751 252.0855 062.8357 07.76900950199042
Epoch (UTC): 31 July 2014 13:32:36
Eccentricity: 0.3865751
inclination: 28.1764°
perigee height: 227 km
apogee height: 8553 km
right ascension of ascending node: 34.3021°
argument of perigee: 252.0855°
revolutions per day: 7.76900950
mean anomaly at epoch: 62.8357°
orbit number at epoch: 19904

The dashed part of the orbit path shows where the satellite is in the earth's shadow,  

DLR